This is the latest recevied weather packets stored in our database for station/object SV9TNF-56. If no packets are shown the sender has not sent any weather packets the latest 10 day(s).
| Time | Temp. | Humidity | Pressure | Rain* | Wind** | Luminosity | Snow |
|---|---|---|---|---|---|---|---|
| 1787825790 | 27.78° C | 57% | 1018.6 hPa | 0 mm | 11.18 m/s, 203° | - | - |
| 1787825490 | 27.78° C | 55% | 1018.6 hPa | 0 mm | 10.28 m/s, 195° | - | - |
| 1787825189 | 27.78° C | 55% | 1018.6 hPa | 0 mm | 11.18 m/s, 181° | - | - |
| 1787824890 | 27.78° C | 55% | 1018.6 hPa | 0 mm | 13.86 m/s, 158° | - | - |
| 1787824594 | 27.78° C | 53% | 1018.6 hPa | 0 mm | 10.28 m/s, 186° | - | - |
| 1787824289 | 28.33° C | 53% | 1018.6 hPa | 0 mm | 16.99 m/s, 196° | - | - |
| 1787823989 | 28.33° C | 49% | 1019 hPa | 0 mm | 16.09 m/s, 172° | - | - |
| 1787823689 | 28.33° C | 50% | 1018.6 hPa | 0 mm | 13.41 m/s, 298° | - | - |
| 1787823389 | 28.33° C | 49% | 1018.6 hPa | 0 mm | 22.35 m/s, 225° | - | - |
| 1787823089 | 28.89° C | 45% | 1019 hPa | 0 mm | 15.2 m/s, 348° | - | - |
| 1787822789 | 28.89° C | 45% | 1018.6 hPa | 0 mm | 22.8 m/s, 181° | - | - |
| 1787822489 | 28.89° C | 44% | 1019 hPa | 0 mm | 8.05 m/s, 180° | - | - |
| 1787822189 | 28.89° C | 46% | 1019 hPa | 0 mm | 13.86 m/s, 181° | - | - |
| 1787821888 | 28.89° C | 46% | 1019 hPa | 0 mm | 5.36 m/s, 174° | - | - |
| 1787821589 | 28.33° C | 47% | 1018.6 hPa | 0 mm | 8.49 m/s, 192° | - | - |
| 1787821288 | 28.33° C | 50% | 1018.6 hPa | 0 mm | 6.71 m/s, 152° | - | - |
| 1787820989 | 28.33° C | 50% | 1018.6 hPa | 0 mm | 6.26 m/s, 118° | - | - |
| 1787820688 | 28.89° C | 48% | 1018.6 hPa | 0 mm | 16.99 m/s, 217° | - | - |
| 1787820388 | 28.89° C | 47% | 1018.6 hPa | 0 mm | 15.2 m/s, 179° | - | - |
| 1787820087 | 28.33° C | 49% | 1018.6 hPa | 0 mm | 19.22 m/s, 179° | - | - |
| 1787819788 | 27.78° C | 51% | 1018.6 hPa | 0 mm | 19.67 m/s, 312° | - | - |
| 1787819488 | 27.78° C | 53% | 1018.6 hPa | 0 mm | 8.49 m/s, 132° | - | - |
| 1787819188 | 28.33° C | 50% | 1018.6 hPa | 0 mm | 5.81 m/s, 169° | - | - |
| 1787818888 | 27.78° C | 51% | 1018.6 hPa | 0 mm | 16.99 m/s, 212° | - | - |
| 1787818587 | 27.78° C | 54% | 1018.3 hPa | 0 mm | 12.96 m/s, 212° | - | - |
* Rain latest hour (hover to see other rain measurements)
** Current wind speed in m/s (hover to see current wind gust speed)